Theta_e
314 314 314 315 315 315 315 314 315 315 315 314 314 315 314 313 313 313 312 311 311 308 306 305 304 304 304 304 305 307 308 310 312 316 317 320 321 321 322 321 320 319 318 316
314 315 315 315 315 315 314 314 314 314 315 314 313 314 313 313 313 312 311 309 308 306 305 304 303 302 302 302 303 304 306 307 309 310 314 315 317 318 319 319 318 317 316 314
316 318 317 316 315 315 314 315 315 314 313 313 312 312 313 313 313 310 309 307 306 305 304 304 303 302 301 301 300 301 302 303 305 307 309 311 313 312 312 313 314 315 315 313
318 315 314 313 313 313 314 313 313 313 312 312 310 311 313 313 312 309 307 306 304 303 303 302 301 301 300 300 300 299 299 301 302 304 306 307 308 307 307 308 308 310 312 312
316 312 312 314 314 314 315 311 312 311 311 312 312 313 314 314 310 309 307 305 304 302 302 301 300 300 299 298 298 297 297 298 298 300 302 302 303 303 304 304 305 304 306 307
312 309 311 313 314 311 311 310 310 310 311 316 316 316 317 313 310 308 307 306 304 303 301 301 300 299 298 298 297 296 296 296 296 297 297 298 298 299 300 301 302 302 302 302
317 315 311 311 313 310 310 311 317 320 316 319 317 319 318 317 309 308 307 305 303 301 300 299 298 298 297 296 296 295 294 293 294 294 295 295 296 296 297 297 298 299 300 301
319 317 314 309 313 315 312 318 320 322 322 320 315 317 319 311 308 307 305 303 302 300 299 299 298 297 297 296 294 294 292 292 292 292 293 293 293 294 294 294 295 296 296 297
315 317 309 309 309 311 318 320 318 322 315 319 316 315 313 310 309 307 305 302 300 298 298 298 298 296 294 294 293 293 291 290 290 290 291 291 290 290 291 291 292 292 293 293
318 320 318 314 311 312 314 312 319 317 316 309 313 313 313 313 311 307 303 300 298 297 296 296 297 295 293 292 292 291 290 289 289 289 289 289 288 287 287 287 287 287 288 291
317 318 316 315 313 315 310 311 311 313 314 315 315 312 311 311 311 306 302 300 298 296 294 293 293 295 293 290 289 289 289 288 287 287 288 288 287 286 285 285 285 285 285 285
315 316 315 315 311 310 310 312 313 318 315 314 315 315 309 305 303 302 301 300 297 295 292 291 292 291 292 290 288 288 287 287 287 286 286 286 286 285 285 284 284 284 285 284
313 313 308 307 307 312 314 313 313 313 312 315 316 314 310 303 302 302 301 298 296 295 291 290 290 290 290 290 289 288 287 287 286 286 285 285 285 285 285 284 283 283 283 284
309 311 306 307 306 307 306 307 307 308 311 309 308 307 305 306 305 303 299 297 296 294 291 290 289 289 289 289 289 289 288 287 286 286 285 285 284 284 283 283 283 282 282 282
307 303 305 305 306 305 304 304 305 305 304 305 304 304 304 305 299 295 292 292 294 294 291 289 289 289 289 289 289 289 289 287 286 286 285 285 284 284 284 284 283 282 282 281
305 298 300 295 301 301 302 301 301 301 301 301 301 301 300 295 295 295 295 292 291 290 290 290 289 289 289 289 289 288 289 288 287 286 285 284 284 284 283 283 282 282 281 281
300 297 291 292 298 296 293 297 298 299 298 299 299 298 294 294 294 292 291 291 291 291 290 289 289 289 289 289 288 288 288 287 286 285 285 284 283 283 282 282 282 281 280 280
298 295 294 290 290 291 294 296 294 294 294 293 292 288 289 290 290 290 290 290 290 290 289 288 289 289 289 288 287 286 286 285 284 283 283 283 283 282 282 282 281 280 280 279
295 296 294 289 289 293 294 293 292 291 290 292 292 291 291 290 289 288 290 289 290 289 289 289 289 289 288 286 285 284 283 282 282 281 281 281 280 280 280 279 279 279 279 278
291 293 293 285 288 285 292 291 291 291 290 288 288 288 290 290 286 287 290 289 289 289 289 288 287 286 285 283 282 280 280 279 279 278 277 277 276 276 276 276 276 277 277 277
286 286 290 292 292 290 292 291 290 289 290 289 288 289 289 288 288 288 288 288 289 288 287 285 284 283 282 280 278 277 276 276 275 274 272 271 271 270 270 270 270 271 271 272
288 286 285 284 284 289 290 290 291 291 293 291 291 290 289 289 288 288 287 287 287 285 283 282 280 278 277 276 275 273 273 272 270 269 268 267 266 265 266 266 266 266 267 268
288 289 286 288 289 291 290 290 290 291 289 290 290 289 288 288 288 287 287 285 283 282 280 279 277 275 274 273 272 271 270 268 267 266 265 264 264 264 264 264 264 264 264 265
290 289 289 289 290 290 290 290 290 289 289 289 288 288 288 288 287 286 284 283 281 280 278 275 274 272 272 271 270 268 267 266 265 264 263 263 263 263 263 263 264 264 264 264
290 290 289 290 290 290 290 290 290 289 289 289 288 287 287 286 284 283 281 279 278 276 274 272 271 270 269 268 267 266 265 265 263 263 263 263 263 263 263 263 263 264 264 265
291 291 290 290 290 290 290 289 289 289 288 287 287 284 282 282 282 279 277 276 274 272 271 269 269 268 267 266 265 265 264 264 263 262 263 262 262 262 262 262 263 264 265 266
Wind_Speed
5 3 6 10 10 10 5 8 11 10 9 12 14 15 9 9 16 19 14 10 4 15 18 28 30 30 32 32 27 21 15 10 4 7 10 13 12 14 18 16 18 20 23 28
3 7 12 7 6 8 10 11 12 8 7 7 10 16 19 19 17 15 7 14 14 15 16 20 24 26 28 29 30 28 22 17 7 3 4 4 6 10 13 16 17 17 20 24
10 6 9 5 7 10 11 11 10 8 7 6 9 7 8 8 3 17 16 16 17 15 13 12 20 24 26 29 30 29 27 22 16 8 4 1 4 1 1 3 9 14 17 18
6 3 2 4 7 6 9 8 2 5 4 3 7 5 6 15 4 14 13 14 11 10 10 11 17 23 26 29 28 29 27 25 22 15 12 8 6 4 3 6 8 12 16 19
2 7 5 6 6 1 4 3 3 5 4 5 7 5 5 7 10 9 9 10 9 8 8 10 15 19 22 25 27 26 28 28 23 19 16 15 14 10 6 7 3 2 9 14
9 2 2 5 3 0 3 3 9 7 5 2 3 4 4 4 8 6 8 9 9 8 8 10 17 17 20 22 23 26 27 28 28 26 23 17 13 12 12 13 11 8 9 12
3 8 4 1 2 3 2 3 4 1 1 5 7 4 4 3 10 13 13 10 9 8 7 7 9 16 20 26 28 25 28 27 25 23 23 24 20 16 15 14 14 12 12 10
4 4 5 5 2 2 4 1 3 5 3 4 6 5 5 7 13 13 12 10 8 8 7 7 11 15 17 19 21 21 23 24 23 22 20 20 20 20 22 21 17 16 15 14
3 2 3 2 3 2 4 2 3 2 3 2 5 5 7 14 11 10 10 9 8 7 7 7 11 12 13 14 14 15 16 17 19 19 20 21 22 21 20 19 20 20 18 18
3 4 1 3 2 2 2 4 1 1 3 4 6 4 7 7 10 10 8 8 7 6 6 5 8 11 11 12 11 11 10 12 14 17 18 18 19 19 19 21 23 22 21 20
4 2 3 1 4 6 2 2 4 1 3 3 8 6 7 6 6 11 8 6 6 5 4 4 9 10 12 10 9 9 9 12 14 13 11 12 14 17 20 24 24 25 24 23
6 3 4 8 8 8 6 9 7 7 6 4 11 15 5 7 8 8 6 6 5 5 5 5 6 7 7 7 9 8 8 7 9 12 11 10 11 15 17 20 19 21 23 24
2 1 2 8 5 3 2 3 2 4 2 7 10 6 5 7 6 4 6 6 4 3 4 4 5 5 7 8 9 11 13 13 15 16 17 17 15 16 14 18 18 19 19 20
2 3 6 6 10 10 6 9 10 3 5 10 13 19 20 13 7 6 6 6 4 4 2 0 2 5 7 8 9 11 14 16 21 22 26 27 25 26 25 25 27 27 25 25
1 4 2 9 10 10 10 13 18 16 16 12 22 22 23 19 5 5 5 6 3 5 6 6 3 3 7 8 9 10 13 14 16 20 25 29 30 33 34 35 35 35 32 30
2 3 3 6 6 10 15 21 19 19 21 22 22 24 13 7 4 1 1 5 2 4 6 4 5 7 9 9 11 15 15 18 19 23 28 30 32 36 36 36 35 34 34 33
3 3 2 6 2 4 7 18 20 18 20 20 18 13 2 2 0 3 5 4 4 4 4 5 6 9 9 7 6 10 14 13 17 25 30 31 33 35 37 37 36 33 33 33
5 4 3 4 5 4 8 2 5 9 12 6 5 3 5 3 4 4 4 6 5 2 3 5 7 11 13 2 6 9 13 19 23 25 27 28 29 32 33 33 34 36 33 32
13 7 3 3 6 9 15 6 3 3 7 3 4 5 6 4 4 5 3 4 2 4 5 8 8 7 7 7 9 15 17 17 21 24 25 26 26 30 31 33 35 37 35 37
2 7 6 2 4 7 1 6 5 3 8 7 6 4 2 2 1 5 4 4 6 8 5 8 8 8 10 11 13 16 18 19 19 21 23 25 26 28 30 31 33 34 33 35
3 1 9 12 7 6 1 3 4 4 11 3 7 6 5 3 6 9 6 5 8 4 7 7 11 11 9 13 18 15 15 17 20 25 28 28 28 29 32 34 33 35 37 39
6 5 5 2 2 7 1 4 6 4 3 5 6 7 6 9 8 6 8 5 5 6 7 9 11 9 11 14 18 18 18 20 23 24 26 29 31 31 30 31 34 32 32 34
2 8 4 7 5 4 5 5 7 4 5 6 7 10 10 8 6 7 2 4 4 5 5 7 12 16 15 17 19 21 25 27 27 28 29 28 28 29 29 30 31 31 28 29
5 8 5 6 9 14 19 14 13 13 11 9 8 8 6 7 6 3 2 1 2 4 6 9 13 14 15 17 22 22 28 28 29 29 28 28 28 29 28 27 28 29 28 29
10 3 9 11 11 16 15 13 14 14 15 14 10 6 7 7 5 5 4 3 1 3 6 9 12 14 18 22 23 27 29 29 29 27 28 28 28 28 30 29 29 30 31 32
15 22 11 11 16 13 13 12 9 8 7 7 6 5 3 4 3 3 3 3 2 3 9 11 12 17 22 25 27 30 29 28 29 27 27 29 29 29 30 31 31 32 35 37
Wind_Direction
194 212 205 229 240 264 314 309 298 298 307 299 285 289 308 285 272 287 291 292 25 71 60 49 41 31 28 30 27 31 37 36 160 196 218 226 221 222 220 224 228 226 225 219
129 227 238 266 326 310 297 286 284 279 284 325 320 300 290 277 269 265 294 61 66 61 50 45 43 39 32 29 32 32 35 47 61 71 177 210 225 235 230 224 229 230 231 222
216 262 330 311 296 275 272 271 291 313 343 303 300 282 269 281 17 74 65 71 62 56 47 40 36 37 37 33 34 34 36 41 41 43 70 116 228 9 75 242 237 240 240 232
239 225 196 248 260 253 277 261 320 301 335 235 45 282 327 281 77 81 75 68 56 57 59 51 42 38 33 31 38 39 40 41 41 46 36 42 50 60 358 298 261 245 243 238
199 169 185 213 230 272 262 10 280 254 244 306 233 249 245 235 107 103 91 86 75 67 62 58 53 51 44 42 42 40 44 44 41 46 47 37 28 15 7 23 55 298 271 258
261 107 280 230 230 279 11 296 269 257 218 284 238 212 304 92 156 123 110 96 91 74 64 60 57 51 47 45 45 45 41 38 40 40 39 39 30 18 15 11 2 328 289 278
266 226 203 202 249 126 84 329 308 276 119 212 51 3 258 347 171 153 132 109 92 79 62 51 44 38 33 33 33 32 35 33 36 35 38 35 34 29 29 20 6 349 346 312
238 291 124 161 210 10 174 339 191 265 320 308 2 236 246 84 81 91 98 100 80 68 65 60 49 46 46 42 34 29 27 28 25 27 36 31 34 36 36 29 18 4 351 331
322 203 163 149 66 62 141 191 75 39 234 211 232 276 289 116 105 110 107 94 90 77 65 67 70 66 57 51 46 39 32 26 22 22 30 27 26 28 31 30 29 20 9 348
30 307 110 82 113 213 188 111 43 175 260 240 261 281 265 94 138 124 108 102 98 94 87 92 102 97 80 67 56 45 43 38 30 27 22 21 24 23 24 28 24 16 10 2
110 205 240 50 180 191 156 195 210 253 203 252 275 257 96 86 109 129 128 123 125 131 113 81 56 53 65 53 54 55 45 27 20 20 18 19 17 17 17 23 14 6 3 3
202 188 237 241 288 310 275 266 266 247 254 243 257 258 26 109 119 124 139 144 127 79 69 72 75 65 56 49 33 23 27 31 13 5 359 2 7 9 10 14 5 355 350 351
41 241 320 322 288 70 88 42 360 305 255 247 267 267 53 98 124 157 180 155 146 147 122 88 75 50 39 21 21 9 359 354 357 355 351 349 350 352 349 345 344 337 333 335
55 224 180 230 262 324 301 291 274 255 277 286 274 287 290 289 313 284 172 157 167 183 153 27 43 15 357 355 350 344 340 343 339 344 342 340 338 338 338 331 329 328 330 328
131 252 267 278 290 305 295 277 274 273 266 257 272 280 279 291 310 73 100 92 131 214 210 205 187 284 297 303 308 311 311 324 329 328 330 329 331 331 329 327 325 324 323 322
156 254 19 286 276 270 269 266 270 270 268 267 267 269 294 33 71 20 99 128 58 20 353 297 197 225 247 253 272 289 292 302 314 317 319 320 321 322 321 320 319 316 313 313
205 163 138 254 34 345 299 247 249 256 260 265 273 284 350 305 264 71 44 3 313 300 298 321 294 252 245 239 281 299 295 292 298 297 299 306 310 312 313 313 311 306 305 307
217 156 169 258 47 247 250 117 327 275 274 283 280 168 174 153 23 350 284 253 256 269 319 292 297 306 302 334 330 311 309 311 301 296 297 299 298 298 299 298 296 295 296 297
224 215 243 202 207 280 306 299 339 95 280 209 210 198 189 39 321 281 288 41 338 295 295 300 311 17 23 21 340 325 319 312 308 306 305 305 304 301 299 295 292 290 288 288
192 213 197 182 200 225 283 107 118 117 269 222 163 165 107 344 3 271 310 307 287 287 321 29 26 24 9 354 333 326 319 316 312 312 313 311 309 305 303 301 298 295 292 287
125 296 217 233 248 271 271 123 116 138 270 192 164 182 224 231 217 245 261 261 268 73 55 13 347 355 357 331 327 324 317 313 313 309 307 307 306 304 301 299 296 294 291 289
157 169 218 162 219 279 189 114 173 229 140 174 208 237 270 285 267 260 258 262 89 66 28 355 341 343 334 334 330 324 319 318 314 311 308 306 305 303 301 297 296 294 291 288
245 205 197 178 203 218 196 221 224 253 217 232 234 264 270 269 257 266 273 69 55 55 13 350 337 329 332 330 330 322 319 319 317 313 310 307 304 302 299 297 296 295 292 287
246 229 226 245 248 258 264 265 260 271 268 258 249 251 243 247 251 167 133 56 8 353 358 343 334 327 319 323 322 316 317 316 314 311 309 308 305 303 299 295 293 292 292 289
222 144 230 250 251 258 265 258 263 262 266 270 271 231 219 208 192 167 168 160 217 6 344 330 325 315 311 317 317 321 321 321 313 310 308 308 307 303 301 296 292 290 286 284
232 236 239 249 249 250 262 268 251 249 237 249 247 216 200 177 173 118 134 118 62 1 320 322 317 314 314 317 317 321 325 324 314 307 310 306 303 302 300 299 297 294 294 295